Year,Month,Day,Hour,Minute,Value (Times are PST for temperature in C)
2007,07,10,00,00,17.30
2007,07,10,00,01,17.30
2007,07,10,00,02,17.30
2007,07,10,00,03,17.30
2007,07,10,00,04,17.30
2007,07,10,00,05,17.30
2007,07,10,00,06,17.30
2007,07,10,00,07,17.30
2007,07,10,00,08,17.30
2007,07,10,00,09,17.30
2007,07,10,00,10,17.20
2007,07,10,00,11,17.20
2007,07,10,00,12,17.20
2007,07,10,00,13,17.20
2007,07,10,00,14,17.20
2007,07,10,00,15,17.20
2007,07,10,00,16,17.20
2007,07,10,00,17,17.20
2007,07,10,00,18,17.20
2007,07,10,00,19,17.10
2007,07,10,00,20,17.10
2007,07,10,00,21,17.10
2007,07,10,00,22,17.10
2007,07,10,00,23,17.10
2007,07,10,00,24,17.10
2007,07,10,00,25,17.10
2007,07,10,00,26,17.10
2007,07,10,00,27,17.10
2007,07,10,00,28,17.00
2007,07,10,00,29,17.00
2007,07,10,00,30,17.00
2007,07,10,00,31,17.00
2007,07,10,00,32,16.90
2007,07,10,00,33,16.90
2007,07,10,00,34,16.80
2007,07,10,00,35,16.80
2007,07,10,00,36,16.80
2007,07,10,00,37,16.70
2007,07,10,00,38,16.70
2007,07,10,00,39,16.70
2007,07,10,00,40,16.70
2007,07,10,00,41,16.70
2007,07,10,00,42,16.70
2007,07,10,00,43,16.70
2007,07,10,00,44,16.70
2007,07,10,00,45,16.70
2007,07,10,00,46,16.70
2007,07,10,00,47,16.70
2007,07,10,00,48,16.70
2007,07,10,00,49,16.70
2007,07,10,00,50,16.60
2007,07,10,00,51,16.60
2007,07,10,00,52,16.60
2007,07,10,00,53,16.60
2007,07,10,00,54,16.60
2007,07,10,00,55,16.60
2007,07,10,00,56,16.50
2007,07,10,00,57,16.50
2007,07,10,00,58,16.40
2007,07,10,00,59,16.40
2007,07,10,01,00,16.40
2007,07,10,01,01,16.40
2007,07,10,01,02,16.30
2007,07,10,01,03,16.30
2007,07,10,01,04,16.30
2007,07,10,01,05,16.30
2007,07,10,01,06,16.20
2007,07,10,01,07,16.20
2007,07,10,01,08,16.20
2007,07,10,01,09,16.20
2007,07,10,01,10,16.10
2007,07,10,01,11,16.10
2007,07,10,01,12,16.10
2007,07,10,01,13,16.10
2007,07,10,01,14,16.10
2007,07,10,01,15,16.10
2007,07,10,01,16,16.10
2007,07,10,01,17,16.00
2007,07,10,01,18,16.00
2007,07,10,01,19,16.00
2007,07,10,01,20,16.00
2007,07,10,01,21,16.00
2007,07,10,01,22,16.00
2007,07,10,01,23,16.00
2007,07,10,01,24,15.90
2007,07,10,01,25,15.90
2007,07,10,01,26,15.90
2007,07,10,01,27,15.90
2007,07,10,01,28,15.90
2007,07,10,01,29,15.90
2007,07,10,01,30,15.90
2007,07,10,01,31,15.90
2007,07,10,01,32,15.90
2007,07,10,01,33,15.90
2007,07,10,01,34,15.90
2007,07,10,01,35,15.90
2007,07,10,01,36,15.90
2007,07,10,01,37,15.90
2007,07,10,01,38,15.90
2007,07,10,01,39,15.90
2007,07,10,01,40,15.90
2007,07,10,01,41,15.90
2007,07,10,01,42,15.90
2007,07,10,01,43,15.90
2007,07,10,01,44,15.80
2007,07,10,01,45,15.80
2007,07,10,01,46,15.80
2007,07,10,01,47,15.80
2007,07,10,01,48,15.80
2007,07,10,01,49,15.80
2007,07,10,01,50,15.80
2007,07,10,01,51,15.70
2007,07,10,01,52,15.70
2007,07,10,01,53,15.70
2007,07,10,01,54,15.70
2007,07,10,01,55,15.70
2007,07,10,01,56,15.60
2007,07,10,01,57,15.60
2007,07,10,01,58,15.60
2007,07,10,01,59,15.60
2007,07,10,02,00,15.60
2007,07,10,02,01,15.60
2007,07,10,02,02,15.70
2007,07,10,02,03,15.70
2007,07,10,02,04,15.70
2007,07,10,02,05,15.70
2007,07,10,02,06,15.70
2007,07,10,02,07,15.70
2007,07,10,02,08,15.70
2007,07,10,02,09,15.70
2007,07,10,02,10,15.70
2007,07,10,02,11,15.70
2007,07,10,02,12,15.70
2007,07,10,02,13,15.70
2007,07,10,02,14,15.70
2007,07,10,02,15,15.60
2007,07,10,02,16,15.60
2007,07,10,02,17,15.60
2007,07,10,02,18,15.60
2007,07,10,02,19,15.60
2007,07,10,02,20,15.50
2007,07,10,02,21,15.50
2007,07,10,02,22,15.50
2007,07,10,02,23,15.40
2007,07,10,02,24,15.50
2007,07,10,02,25,15.50
2007,07,10,02,26,15.50
2007,07,10,02,27,15.50
2007,07,10,02,28,15.50
2007,07,10,02,29,15.50
2007,07,10,02,30,15.40
2007,07,10,02,31,15.40
2007,07,10,02,32,15.40
2007,07,10,02,33,15.50
2007,07,10,02,34,15.50
2007,07,10,02,35,15.50
2007,07,10,02,36,15.50
2007,07,10,02,37,15.60
2007,07,10,02,38,15.60
2007,07,10,02,39,15.60
2007,07,10,02,40,15.60
2007,07,10,02,41,15.60
2007,07,10,02,42,15.60
2007,07,10,02,43,15.60
2007,07,10,02,44,15.60
2007,07,10,02,45,15.60
2007,07,10,02,46,15.50
2007,07,10,02,47,15.50
2007,07,10,02,48,15.40
2007,07,10,02,49,15.40
2007,07,10,02,50,15.40
2007,07,10,02,51,15.40
2007,07,10,02,52,15.30
2007,07,10,02,53,15.30
2007,07,10,02,54,15.30
2007,07,10,02,55,15.30
2007,07,10,02,56,15.30
2007,07,10,02,57,15.20
2007,07,10,02,58,15.20
2007,07,10,02,59,15.20
2007,07,10,03,00,15.20
2007,07,10,03,01,15.20
2007,07,10,03,02,15.10
2007,07,10,03,03,15.10
2007,07,10,03,04,15.20
2007,07,10,03,05,15.20
2007,07,10,03,06,15.30
2007,07,10,03,07,15.30
2007,07,10,03,08,15.30
2007,07,10,03,09,15.30
2007,07,10,03,10,15.30
2007,07,10,03,11,15.30
2007,07,10,03,12,15.30
2007,07,10,03,13,15.30
2007,07,10,03,14,15.30
2007,07,10,03,15,15.30
2007,07,10,03,16,15.30
2007,07,10,03,17,15.30
2007,07,10,03,18,15.30
2007,07,10,03,19,15.40
2007,07,10,03,20,15.40
2007,07,10,03,21,15.40
2007,07,10,03,22,15.40
2007,07,10,03,23,15.40
2007,07,10,03,24,15.40
2007,07,10,03,25,15.40
2007,07,10,03,26,15.40
2007,07,10,03,27,15.30
2007,07,10,03,28,15.30
2007,07,10,03,29,15.30
2007,07,10,03,30,15.30
2007,07,10,03,31,15.30
2007,07,10,03,32,15.30
2007,07,10,03,33,15.30
2007,07,10,03,34,15.30
2007,07,10,03,35,15.30
2007,07,10,03,36,15.30
2007,07,10,03,37,15.30
2007,07,10,03,38,15.30
2007,07,10,03,39,15.30
2007,07,10,03,40,15.30
2007,07,10,03,41,15.30
2007,07,10,03,42,15.30
2007,07,10,03,43,15.30
2007,07,10,03,44,15.30
2007,07,10,03,45,15.30
2007,07,10,03,46,15.30
2007,07,10,03,47,15.30
2007,07,10,03,48,15.30
2007,07,10,03,49,15.30
2007,07,10,03,50,15.30
2007,07,10,03,51,15.30
2007,07,10,03,52,15.30
2007,07,10,03,53,15.30
2007,07,10,03,54,15.30
2007,07,10,03,55,15.30
2007,07,10,03,56,15.30
2007,07,10,03,57,15.30
2007,07,10,03,58,15.30
2007,07,10,03,59,15.30
2007,07,10,04,00,15.30
2007,07,10,04,01,15.30
2007,07,10,04,02,15.30
2007,07,10,04,03,15.30
2007,07,10,04,04,15.30
2007,07,10,04,05,15.30
2007,07,10,04,06,15.30
2007,07,10,04,07,15.20
2007,07,10,04,08,15.20
2007,07,10,04,09,15.20
2007,07,10,04,10,15.20
2007,07,10,04,11,15.20
2007,07,10,04,12,15.20
2007,07,10,04,13,15.10
2007,07,10,04,14,15.10
2007,07,10,04,15,15.10
2007,07,10,04,16,15.10
2007,07,10,04,17,15.10
2007,07,10,04,18,15.00
2007,07,10,04,19,15.00
2007,07,10,04,20,15.00
2007,07,10,04,21,15.00
2007,07,10,04,22,15.00
2007,07,10,04,23,15.00
2007,07,10,04,24,15.00
2007,07,10,04,25,15.00
2007,07,10,04,26,15.00
2007,07,10,04,27,15.00
2007,07,10,04,28,15.00
2007,07,10,04,29,15.00
2007,07,10,04,30,15.00
2007,07,10,04,31,15.00
2007,07,10,04,32,15.00
2007,07,10,04,33,15.00
2007,07,10,04,34,15.00
2007,07,10,04,35,15.00
2007,07,10,04,36,15.00
2007,07,10,04,37,15.00
2007,07,10,04,38,15.00
2007,07,10,04,39,15.00
2007,07,10,04,40,15.00
2007,07,10,04,41,15.00
2007,07,10,04,42,15.00
2007,07,10,04,43,15.00
2007,07,10,04,44,15.00
2007,07,10,04,45,15.00
2007,07,10,04,46,15.00
2007,07,10,04,47,15.00
2007,07,10,04,48,15.00
2007,07,10,04,49,14.90
2007,07,10,04,50,14.80
2007,07,10,04,51,14.80
2007,07,10,04,52,14.80
2007,07,10,04,53,14.80
2007,07,10,04,54,14.70
2007,07,10,04,55,14.70
2007,07,10,04,56,14.70
2007,07,10,04,57,14.70
2007,07,10,04,58,14.70
2007,07,10,04,59,14.70
2007,07,10,05,00,14.70
2007,07,10,05,01,14.70
2007,07,10,05,02,14.70
2007,07,10,05,03,14.70
2007,07,10,05,04,14.70
2007,07,10,05,05,14.70
2007,07,10,05,06,14.70
2007,07,10,05,07,14.70
2007,07,10,05,08,14.70
2007,07,10,05,09,14.70
2007,07,10,05,10,14.70
2007,07,10,05,11,14.70
2007,07,10,05,12,14.70
2007,07,10,05,13,14.70
2007,07,10,05,14,14.70
2007,07,10,05,15,14.70
2007,07,10,05,16,14.60
2007,07,10,05,17,14.60
2007,07,10,05,18,14.60
2007,07,10,05,19,14.60
2007,07,10,05,20,14.60
2007,07,10,05,21,14.60
2007,07,10,05,22,14.50
2007,07,10,05,23,14.50
2007,07,10,05,24,14.50
2007,07,10,05,25,14.50
2007,07,10,05,26,14.40
2007,07,10,05,27,14.40
2007,07,10,05,28,14.40
2007,07,10,05,29,14.40
2007,07,10,05,30,14.40
2007,07,10,05,31,14.40
2007,07,10,05,32,14.40
2007,07,10,05,33,14.30
2007,07,10,05,34,14.30
2007,07,10,05,35,14.30
2007,07,10,05,36,14.30
2007,07,10,05,37,14.30
2007,07,10,05,38,14.30
2007,07,10,05,39,14.30
2007,07,10,05,40,14.30
2007,07,10,05,41,14.30
2007,07,10,05,42,14.30
2007,07,10,05,43,14.30
2007,07,10,05,44,14.30
2007,07,10,05,45,14.30
2007,07,10,05,46,14.30
2007,07,10,05,47,14.30
2007,07,10,05,48,14.30
2007,07,10,05,49,14.30
2007,07,10,05,50,14.30
2007,07,10,05,51,14.30
2007,07,10,05,52,14.30
2007,07,10,05,53,14.30
2007,07,10,05,54,14.30
2007,07,10,05,55,14.30
2007,07,10,05,56,14.30
2007,07,10,05,57,14.30
2007,07,10,05,58,14.30
2007,07,10,05,59,14.40
2007,07,10,06,00,14.40
2007,07,10,06,01,14.40
2007,07,10,06,02,14.40
2007,07,10,06,03,14.40
2007,07,10,06,04,14.40
2007,07,10,06,05,14.40
2007,07,10,06,06,14.40
2007,07,10,06,07,14.40
2007,07,10,06,08,14.40
2007,07,10,06,09,14.40
2007,07,10,06,10,14.40
2007,07,10,06,11,14.40
2007,07,10,06,12,14.40
2007,07,10,06,13,14.40
2007,07,10,06,14,14.40
2007,07,10,06,15,14.50
2007,07,10,06,16,14.50
2007,07,10,06,17,14.50
2007,07,10,06,18,14.50
2007,07,10,06,19,14.50
2007,07,10,06,20,14.50
2007,07,10,06,21,14.50
2007,07,10,06,22,14.50
2007,07,10,06,23,14.50
2007,07,10,06,24,14.50
2007,07,10,06,25,14.50
2007,07,10,06,26,14.50
2007,07,10,06,27,14.50
2007,07,10,06,28,14.50
2007,07,10,06,29,14.50
2007,07,10,06,30,14.50
2007,07,10,06,31,14.50
2007,07,10,06,32,14.50
2007,07,10,06,33,14.50
2007,07,10,06,34,14.60
2007,07,10,06,35,14.60
2007,07,10,06,36,14.60
2007,07,10,06,37,14.60
2007,07,10,06,38,14.70
2007,07,10,06,39,14.70
2007,07,10,06,40,14.70
2007,07,10,06,41,14.70
2007,07,10,06,42,14.70
2007,07,10,06,43,14.70
2007,07,10,06,44,14.70
2007,07,10,06,45,14.80
2007,07,10,06,46,14.80
2007,07,10,06,47,14.80
2007,07,10,06,48,14.80
2007,07,10,06,49,14.80
2007,07,10,06,50,14.90
2007,07,10,06,51,14.90
2007,07,10,06,52,15.00
2007,07,10,06,53,15.00
2007,07,10,06,54,15.00
2007,07,10,06,55,15.00
2007,07,10,06,56,15.00
2007,07,10,06,57,15.00
2007,07,10,06,58,15.00
2007,07,10,06,59,15.00
2007,07,10,07,00,15.10
2007,07,10,07,01,15.20
2007,07,10,07,02,15.20
2007,07,10,07,03,15.30
2007,07,10,07,04,15.40
2007,07,10,07,05,15.40
2007,07,10,07,06,15.50
2007,07,10,07,07,15.60
2007,07,10,07,08,15.60
2007,07,10,07,09,15.60
2007,07,10,07,10,15.60
2007,07,10,07,11,15.70
2007,07,10,07,12,15.70
2007,07,10,07,13,15.70
2007,07,10,07,14,15.80
2007,07,10,07,15,15.80
2007,07,10,07,16,15.90
2007,07,10,07,17,15.90
2007,07,10,07,18,16.00
2007,07,10,07,19,16.10
2007,07,10,07,20,16.20
2007,07,10,07,21,16.20
2007,07,10,07,22,16.30
2007,07,10,07,23,16.40
2007,07,10,07,24,16.40
2007,07,10,07,25,16.50
2007,07,10,07,26,16.60
2007,07,10,07,27,16.70
2007,07,10,07,28,16.80
2007,07,10,07,29,16.90
2007,07,10,07,30,16.90
2007,07,10,07,31,17.00
2007,07,10,07,32,17.10
2007,07,10,07,33,17.10
2007,07,10,07,34,17.20
2007,07,10,07,35,17.30
2007,07,10,07,36,17.40
2007,07,10,07,37,17.50
2007,07,10,07,38,17.60
2007,07,10,07,39,17.70
2007,07,10,07,40,17.70
2007,07,10,07,41,17.80
2007,07,10,07,42,18.00
2007,07,10,07,43,18.20
2007,07,10,07,44,18.40
2007,07,10,07,45,18.50
2007,07,10,07,46,18.70
2007,07,10,07,47,18.80
2007,07,10,07,48,19.00
2007,07,10,07,49,19.20
2007,07,10,07,50,19.30
2007,07,10,07,51,19.40
2007,07,10,07,52,19.50
2007,07,10,07,53,19.60
2007,07,10,07,54,19.70
2007,07,10,07,55,19.80
2007,07,10,07,56,19.80
2007,07,10,07,57,19.90
2007,07,10,07,58,19.90
2007,07,10,07,59,20.00
2007,07,10,08,00,20.10
2007,07,10,08,01,20.10
2007,07,10,08,02,20.10
2007,07,10,08,03,20.20
2007,07,10,08,04,20.20
2007,07,10,08,05,20.20
2007,07,10,08,06,20.30
2007,07,10,08,07,20.30
2007,07,10,08,08,20.30
2007,07,10,08,09,20.40
2007,07,10,08,10,20.40
2007,07,10,08,11,20.40
2007,07,10,08,12,20.50
2007,07,10,08,13,20.60
2007,07,10,08,14,20.60
2007,07,10,08,15,20.70
2007,07,10,08,16,20.70
2007,07,10,08,17,20.80
2007,07,10,08,18,20.90
2007,07,10,08,19,20.90
2007,07,10,08,20,21.00
2007,07,10,08,21,21.10
2007,07,10,08,22,21.10
2007,07,10,08,23,21.20
2007,07,10,08,24,21.30
2007,07,10,08,25,21.30
2007,07,10,08,26,21.40
2007,07,10,08,27,21.40
2007,07,10,08,28,21.50
2007,07,10,08,29,21.60
2007,07,10,08,30,21.60
2007,07,10,08,31,21.70
2007,07,10,08,32,21.70
2007,07,10,08,33,21.80
2007,07,10,08,34,21.80
2007,07,10,08,35,21.80
2007,07,10,08,36,21.80
2007,07,10,08,37,21.90
2007,07,10,08,38,21.90
2007,07,10,08,39,21.90
2007,07,10,08,40,21.90
2007,07,10,08,41,22.00
2007,07,10,08,42,22.00
2007,07,10,08,43,22.10
2007,07,10,08,44,22.10
2007,07,10,08,45,22.10
2007,07,10,08,46,22.10
2007,07,10,08,47,22.10
2007,07,10,08,48,22.10
2007,07,10,08,49,22.20
2007,07,10,08,50,22.20
2007,07,10,08,51,22.20
2007,07,10,08,52,22.20
2007,07,10,08,53,22.20
2007,07,10,08,54,22.20
2007,07,10,08,55,22.30
2007,07,10,08,56,22.30
2007,07,10,08,57,22.30
2007,07,10,08,58,22.40
2007,07,10,08,59,22.40
2007,07,10,09,00,22.40
2007,07,10,09,01,22.40
2007,07,10,09,02,22.50
2007,07,10,09,03,22.50
2007,07,10,09,04,22.60
2007,07,10,09,05,22.60
2007,07,10,09,06,22.60
2007,07,10,09,07,22.70
2007,07,10,09,08,22.70
2007,07,10,09,09,22.70
2007,07,10,09,10,22.80
2007,07,10,09,11,22.80
2007,07,10,09,12,22.80
2007,07,10,09,13,22.90
2007,07,10,09,14,23.00
2007,07,10,09,15,23.00
2007,07,10,09,16,23.10
2007,07,10,09,17,23.10
2007,07,10,09,18,23.10
2007,07,10,09,19,23.10
2007,07,10,09,20,23.20
2007,07,10,09,21,23.20
2007,07,10,09,22,23.20
2007,07,10,09,23,23.20
2007,07,10,09,24,23.30
2007,07,10,09,25,23.30
2007,07,10,09,26,23.40
2007,07,10,09,27,23.40
2007,07,10,09,28,23.40
2007,07,10,09,29,23.40
2007,07,10,09,30,23.40
2007,07,10,09,31,23.50
2007,07,10,09,32,23.60
2007,07,10,09,33,23.60
2007,07,10,09,34,23.70
2007,07,10,09,35,23.70
2007,07,10,09,36,23.80
2007,07,10,09,37,23.80
2007,07,10,09,38,23.80
2007,07,10,09,39,23.90
2007,07,10,09,40,23.90
2007,07,10,09,41,24.00
2007,07,10,09,42,24.10
2007,07,10,09,43,24.10
2007,07,10,09,44,24.10
2007,07,10,09,45,24.10
2007,07,10,09,46,24.20
2007,07,10,09,47,24.20
2007,07,10,09,48,24.20
2007,07,10,09,49,24.30
2007,07,10,09,50,24.30
2007,07,10,09,51,24.30
2007,07,10,09,52,24.40
2007,07,10,09,53,24.40
2007,07,10,09,54,24.40
2007,07,10,09,55,24.50
2007,07,10,09,56,24.50
2007,07,10,09,57,24.60
2007,07,10,09,58,24.60
2007,07,10,09,59,24.70
2007,07,10,10,00,24.80
2007,07,10,10,01,24.80
2007,07,10,10,02,24.90
2007,07,10,10,03,25.00
2007,07,10,10,04,25.10
2007,07,10,10,05,25.20
2007,07,10,10,06,25.30
2007,07,10,10,07,25.40
2007,07,10,10,08,25.60
2007,07,10,10,09,25.70
2007,07,10,10,10,25.80
2007,07,10,10,11,25.90
2007,07,10,10,12,25.90
2007,07,10,10,13,25.90
2007,07,10,10,14,26.00
2007,07,10,10,15,26.10
2007,07,10,10,16,26.30
2007,07,10,10,17,26.30
2007,07,10,10,18,26.40
2007,07,10,10,19,26.50
2007,07,10,10,20,26.60
2007,07,10,10,21,26.60
2007,07,10,10,22,26.70
2007,07,10,10,23,26.70
2007,07,10,10,24,26.80
2007,07,10,10,25,26.80
2007,07,10,10,26,26.90
2007,07,10,10,27,26.90
2007,07,10,10,28,27.00
2007,07,10,10,29,27.00
2007,07,10,10,30,27.00
2007,07,10,10,31,27.10
2007,07,10,10,32,27.10
2007,07,10,10,33,27.20
2007,07,10,10,34,27.20
2007,07,10,10,35,27.10
2007,07,10,10,36,27.00
2007,07,10,10,37,27.00
2007,07,10,10,38,26.90
2007,07,10,10,39,26.90
2007,07,10,10,40,26.90
2007,07,10,10,41,26.90
2007,07,10,10,42,26.90
2007,07,10,10,43,27.00
2007,07,10,10,44,27.10
2007,07,10,10,45,27.20
2007,07,10,10,46,27.30
2007,07,10,10,47,27.30
2007,07,10,10,48,27.40
2007,07,10,10,49,27.40
2007,07,10,10,50,27.50
2007,07,10,10,51,27.50
2007,07,10,10,52,27.60
2007,07,10,10,53,27.60
2007,07,10,10,54,27.60
2007,07,10,10,55,27.70
2007,07,10,10,56,27.70
2007,07,10,10,57,27.70
2007,07,10,10,58,27.70
2007,07,10,10,59,27.70
2007,07,10,11,00,27.80
2007,07,10,11,01,27.80
2007,07,10,11,02,27.80
2007,07,10,11,03,27.80
2007,07,10,11,04,27.80
2007,07,10,11,05,27.80
2007,07,10,11,06,27.80
2007,07,10,11,07,27.80
2007,07,10,11,08,27.80
2007,07,10,11,09,27.80
2007,07,10,11,10,27.80
2007,07,10,11,11,27.90
2007,07,10,11,12,27.90
2007,07,10,11,13,28.00
2007,07,10,11,14,28.00
2007,07,10,11,15,28.10
2007,07,10,11,16,28.20
2007,07,10,11,17,28.30
2007,07,10,11,18,28.30
2007,07,10,11,19,28.30
2007,07,10,11,20,28.40
2007,07,10,11,21,28.40
2007,07,10,11,22,28.40
2007,07,10,11,23,28.40
2007,07,10,11,24,28.50
2007,07,10,11,25,28.60
2007,07,10,11,26,28.60
2007,07,10,11,27,28.70
2007,07,10,11,28,28.80
2007,07,10,11,29,28.80
2007,07,10,11,30,28.90
2007,07,10,11,31,29.00
2007,07,10,11,32,29.00
2007,07,10,11,33,29.10
2007,07,10,11,34,29.10
2007,07,10,11,35,29.10
2007,07,10,11,36,29.10
2007,07,10,11,37,29.10
2007,07,10,11,38,29.20
2007,07,10,11,39,29.20
2007,07,10,11,40,29.20
2007,07,10,11,41,29.20
2007,07,10,11,42,29.20
2007,07,10,11,43,29.30
2007,07,10,11,44,29.30
2007,07,10,11,45,29.30
2007,07,10,11,46,29.30
2007,07,10,11,47,29.20
2007,07,10,11,48,29.20
2007,07,10,11,49,29.20
2007,07,10,11,50,29.10
2007,07,10,11,51,29.10
2007,07,10,11,52,29.10
2007,07,10,11,53,29.10
2007,07,10,11,54,29.10
2007,07,10,11,55,29.10
2007,07,10,11,56,29.10
2007,07,10,11,57,29.20
2007,07,10,11,58,29.20
2007,07,10,11,59,29.20
2007,07,10,12,00,29.30
2007,07,10,12,01,29.30
2007,07,10,12,02,29.30
2007,07,10,12,03,29.30
2007,07,10,12,04,29.30
2007,07,10,12,05,29.30
2007,07,10,12,06,29.30
2007,07,10,12,07,29.30
2007,07,10,12,08,29.40
2007,07,10,12,09,29.40
2007,07,10,12,10,29.40
2007,07,10,12,11,29.40
2007,07,10,12,12,29.40
2007,07,10,12,13,29.40
2007,07,10,12,14,29.40
2007,07,10,12,15,29.40
2007,07,10,12,16,29.40
2007,07,10,12,17,29.40
2007,07,10,12,18,29.40
2007,07,10,12,19,29.40
2007,07,10,12,20,29.50
2007,07,10,12,21,29.50
2007,07,10,12,22,29.50
2007,07,10,12,23,29.60
2007,07,10,12,24,29.60
2007,07,10,12,25,29.60
2007,07,10,12,26,29.70
2007,07,10,12,27,29.80
2007,07,10,12,28,29.90
2007,07,10,12,29,30.00
2007,07,10,12,30,30.00
2007,07,10,12,31,30.10
2007,07,10,12,32,30.10
2007,07,10,12,33,30.20
2007,07,10,12,34,30.20
2007,07,10,12,35,30.20
2007,07,10,12,36,30.20
2007,07,10,12,37,30.20
2007,07,10,12,38,30.20
2007,07,10,12,39,30.20
2007,07,10,12,40,30.20
2007,07,10,12,41,30.30
2007,07,10,12,42,30.40
2007,07,10,12,43,30.50
2007,07,10,12,44,30.50
2007,07,10,12,45,30.60
2007,07,10,12,46,30.60
2007,07,10,12,47,30.70
2007,07,10,12,48,30.70
2007,07,10,12,49,30.80
2007,07,10,12,50,30.80
2007,07,10,12,51,30.90
2007,07,10,12,52,31.00
2007,07,10,12,53,31.00
2007,07,10,12,54,31.10
2007,07,10,12,55,31.10
2007,07,10,12,56,31.20
2007,07,10,12,57,31.20
2007,07,10,12,58,31.20
2007,07,10,12,59,31.10
2007,07,10,13,00,31.00
2007,07,10,13,01,30.90
2007,07,10,13,02,30.80
2007,07,10,13,03,30.90
2007,07,10,13,04,30.90
2007,07,10,13,05,31.00
2007,07,10,13,06,31.20
2007,07,10,13,07,31.30
2007,07,10,13,08,31.40
2007,07,10,13,09,31.50
2007,07,10,13,10,31.50
2007,07,10,13,11,31.60
2007,07,10,13,12,31.70
2007,07,10,13,13,31.70
2007,07,10,13,14,31.80
2007,07,10,13,15,31.80
2007,07,10,13,16,31.90
2007,07,10,13,17,31.90
2007,07,10,13,18,32.00
2007,07,10,13,19,32.10
2007,07,10,13,20,32.10
2007,07,10,13,21,32.00
2007,07,10,13,22,31.90
2007,07,10,13,23,31.90
2007,07,10,13,24,31.90
2007,07,10,13,25,31.80
2007,07,10,13,26,31.60
2007,07,10,13,27,31.60
2007,07,10,13,28,31.60
2007,07,10,13,29,31.60
2007,07,10,13,30,31.70
2007,07,10,13,31,31.70
2007,07,10,13,32,31.80
2007,07,10,13,33,31.80
2007,07,10,13,34,31.80
2007,07,10,13,35,31.80
2007,07,10,13,36,31.80
2007,07,10,13,37,31.70
2007,07,10,13,38,31.70
2007,07,10,13,39,31.70
2007,07,10,13,40,31.80
2007,07,10,13,41,31.90
2007,07,10,13,42,32.00
2007,07,10,13,43,32.10
2007,07,10,13,44,32.00
2007,07,10,13,45,32.00
2007,07,10,13,46,31.90
2007,07,10,13,47,31.90
2007,07,10,13,48,31.90
2007,07,10,13,49,31.90
2007,07,10,13,50,32.00
2007,07,10,13,51,32.10
2007,07,10,13,52,32.10
2007,07,10,13,53,32.10
2007,07,10,13,54,32.10
2007,07,10,13,55,32.00
2007,07,10,13,56,31.90
2007,07,10,13,57,31.90
2007,07,10,13,58,31.90
2007,07,10,13,59,31.90
2007,07,10,14,00,31.90
2007,07,10,14,01,32.00
2007,07,10,14,02,32.10
2007,07,10,14,03,32.20
2007,07,10,14,04,32.20
2007,07,10,14,05,32.30
2007,07,10,14,06,32.30
2007,07,10,14,07,32.30
2007,07,10,14,08,32.30
2007,07,10,14,09,32.30
2007,07,10,14,10,32.30
2007,07,10,14,11,32.30
2007,07,10,14,12,32.40
2007,07,10,14,13,32.40
2007,07,10,14,14,32.50
2007,07,10,14,15,32.60
2007,07,10,14,16,32.70
2007,07,10,14,17,32.70
2007,07,10,14,18,32.70
2007,07,10,14,19,32.80
2007,07,10,14,20,32.80
2007,07,10,14,21,32.80
2007,07,10,14,22,32.80
2007,07,10,14,23,32.90
2007,07,10,14,24,32.90
2007,07,10,14,25,32.90
2007,07,10,14,26,32.90
2007,07,10,14,27,32.90
2007,07,10,14,28,32.90
2007,07,10,14,29,32.90
2007,07,10,14,30,32.90
2007,07,10,14,31,33.00
2007,07,10,14,32,33.00
2007,07,10,14,33,33.00
2007,07,10,14,34,33.00
2007,07,10,14,35,33.10
2007,07,10,14,36,33.10
2007,07,10,14,37,33.10
2007,07,10,14,38,33.20
2007,07,10,14,39,33.30
2007,07,10,14,40,33.40
2007,07,10,14,41,33.40
2007,07,10,14,42,33.50
2007,07,10,14,43,33.60
2007,07,10,14,44,33.60
2007,07,10,14,45,33.60
2007,07,10,14,46,33.60
2007,07,10,14,47,33.60
2007,07,10,14,48,33.60
2007,07,10,14,49,33.60
2007,07,10,14,50,33.60
2007,07,10,14,51,33.60
2007,07,10,14,52,33.50
2007,07,10,14,53,33.40
2007,07,10,14,54,33.30
2007,07,10,14,55,33.30
2007,07,10,14,56,33.30
2007,07,10,14,57,33.30
2007,07,10,14,58,33.30
2007,07,10,14,59,33.30
2007,07,10,15,00,33.30
2007,07,10,15,01,33.30
2007,07,10,15,02,33.30
2007,07,10,15,03,33.30
2007,07,10,15,04,33.20
2007,07,10,15,05,33.20
2007,07,10,15,06,33.20
2007,07,10,15,07,33.20
2007,07,10,15,08,33.20
2007,07,10,15,09,33.30
2007,07,10,15,10,33.40
2007,07,10,15,11,33.40
2007,07,10,15,12,33.60
2007,07,10,15,13,33.70
2007,07,10,15,14,33.80
2007,07,10,15,15,33.80
2007,07,10,15,16,33.90
2007,07,10,15,17,34.10
2007,07,10,15,18,34.10
2007,07,10,15,19,34.10
2007,07,10,15,20,34.10
2007,07,10,15,21,34.10
2007,07,10,15,22,34.10
2007,07,10,15,23,34.00
2007,07,10,15,24,34.10
2007,07,10,15,25,34.10
2007,07,10,15,26,34.20
2007,07,10,15,27,34.20
2007,07,10,15,28,34.20
2007,07,10,15,29,34.20
2007,07,10,15,30,34.30
2007,07,10,15,31,34.30
2007,07,10,15,32,34.40
2007,07,10,15,33,34.50
2007,07,10,15,34,34.60
2007,07,10,15,35,34.60
2007,07,10,15,36,34.70
2007,07,10,15,37,34.80
2007,07,10,15,38,34.80
2007,07,10,15,39,34.90
2007,07,10,15,40,34.80
2007,07,10,15,41,34.70
2007,07,10,15,42,34.60
2007,07,10,15,43,34.60
2007,07,10,15,44,34.60
2007,07,10,15,45,34.60
2007,07,10,15,46,34.50
2007,07,10,15,47,34.40
2007,07,10,15,48,34.30
2007,07,10,15,49,34.30
2007,07,10,15,50,34.30
2007,07,10,15,51,34.40
2007,07,10,15,52,34.40
2007,07,10,15,53,34.50
2007,07,10,15,54,34.60
2007,07,10,15,55,34.70
2007,07,10,15,56,34.80
2007,07,10,15,57,34.80
2007,07,10,15,58,34.90
2007,07,10,15,59,34.90
2007,07,10,16,00,35.00
2007,07,10,16,01,35.10
2007,07,10,16,02,35.20
2007,07,10,16,03,35.30
2007,07,10,16,04,35.40
2007,07,10,16,05,35.50
2007,07,10,16,06,35.60
2007,07,10,16,07,35.70
2007,07,10,16,08,35.70
2007,07,10,16,09,35.70
2007,07,10,16,10,35.60
2007,07,10,16,11,35.30
2007,07,10,16,12,35.10
2007,07,10,16,13,34.80
2007,07,10,16,14,34.80
2007,07,10,16,15,34.70
2007,07,10,16,16,34.80
2007,07,10,16,17,34.80
2007,07,10,16,18,34.90
2007,07,10,16,19,35.00
2007,07,10,16,20,35.10
2007,07,10,16,21,35.10
2007,07,10,16,22,35.10
2007,07,10,16,23,35.10
2007,07,10,16,24,35.10
2007,07,10,16,25,35.20
2007,07,10,16,26,35.30
2007,07,10,16,27,35.30
2007,07,10,16,28,35.30
2007,07,10,16,29,35.20
2007,07,10,16,30,35.20
2007,07,10,16,31,35.10
2007,07,10,16,32,35.00
2007,07,10,16,33,34.80
2007,07,10,16,34,34.60
2007,07,10,16,35,34.40
2007,07,10,16,36,34.30
2007,07,10,16,37,34.30
2007,07,10,16,38,34.30
2007,07,10,16,39,34.40
2007,07,10,16,40,34.40
2007,07,10,16,41,34.50
2007,07,10,16,42,34.60
2007,07,10,16,43,34.70
2007,07,10,16,44,34.70
2007,07,10,16,45,34.70
2007,07,10,16,46,34.70
2007,07,10,16,47,34.80
2007,07,10,16,48,34.80
2007,07,10,16,49,34.80
2007,07,10,16,50,34.80
2007,07,10,16,51,34.80
2007,07,10,16,52,34.70
2007,07,10,16,53,34.50
2007,07,10,16,54,34.40
2007,07,10,16,55,34.20
2007,07,10,16,56,34.00
2007,07,10,16,57,33.90
2007,07,10,16,58,33.80
2007,07,10,16,59,33.90
2007,07,10,17,00,34.00
2007,07,10,17,01,34.10
2007,07,10,17,02,34.20
2007,07,10,17,03,34.30
2007,07,10,17,04,34.20
2007,07,10,17,05,34.00
2007,07,10,17,06,33.80
2007,07,10,17,07,33.70
2007,07,10,17,08,33.60
2007,07,10,17,09,33.60
2007,07,10,17,10,33.60
2007,07,10,17,11,33.60
2007,07,10,17,12,33.70
2007,07,10,17,13,33.80
2007,07,10,17,14,33.90
2007,07,10,17,15,34.00
2007,07,10,17,16,34.20
2007,07,10,17,17,34.40
2007,07,10,17,18,34.40
2007,07,10,17,19,34.40